Find Local Weather

World > North America > United States > Florida

Panama City, Florida Regional Weather

Lat: 30.17N, Lon: 85.67W
Wx Zone: FLZ012
Feedback
Expires:201808220000;;429499
ASUS42 KTBW 212317
RWRFL 
FLORIDA REGIONAL WEATHER ROUNDUP
NATIONAL WEATHER SERVICE TAMPA BAY RUSKIN FL
700 PM EDT TUE AUG 21 2018

NOTE: "FAIR" INDICATES FEW OR NO CLOUDS BELOW 12,000 FEET WITH NO
SIGNIFICANT WEATHER AND/OR OBSTRUCTIONS TO VISIBILITY.


FLZ001>010-012>015-112-114-115-220000-
PANHANDLE FLORIDA
  
CITY           SKY/WX    TMP DP  RH WIND       PRES   REMARKS
PENSACOLA      FAIR      84  77  79 SW13      30.02R                  
MILTON NAS     PTSUNNY   80  75  84 S6        30.03R                  
CRESTVIEW      FAIR      83  78  85 SW6       30.05R                  
DUKE FIELD     PTSUNNY   84  77  81 S9        30.03R                  
VALPARAISO     PTSUNNY   85  77  77 SW10      30.03R HX  95           
MARY ESTHER    PTSUNNY   85  73  67 SW9       30.02                   
PANAMA CITY    FAIR      85  73  67 SW9       30.04R                  
TYNDALL AFB    FAIR      86  76  71 SW8       30.05R HX  95           
APALACHICOLA   FAIR      86  76  71 W13       30.05R HX  96           

STATION/POSITION SKY/WX   TEMP    WIND        PRES    WAVE   SWELL
                          AIR SEA DIR/SP/G            HT/PER HT/PER
                          (F)     (DEG/KT/KT) (MB)    (FT/S) (FT/S)
30.1N   87.6W              85     220/ 16/ 19 1016.8S   2/ 4
29.2N   88.2W                 86  240/ 10/ 12 1017.6F   2/ 3
28.8N   86.0W              85 86  240/  8/ 10 1017.8    1/ 4
PANAMA CITY BEAC           84 86  220/ 11/ 12 1017.9R
TOWER C          NOT AVBL

$$

SKY/WX - Weather  TMP - Temperature  DP - Dewpoint  RH - Relative Humidity
WIND - Wind Direction/Speed PRES - Barometric Pressure